Wind_Speed
9 8 8 6 6 5 5 4 4 5 6 7 8 9 9 8 9 9 10 11 10 10 11 10 10 9 9 8 9 9 9 9 9 9 9 9 10 9 8 9 9 8 8 7
9 9 8 7 6 7 7 6 7 7 7 7 9 9 9 9 10 10 9 10 10 10 10 10 10 9 9 9 9 9 9 10 10 8 8 9 9 9 9 9 9 9 9 9
11 10 9 9 9 9 9 8 7 8 8 8 10 11 10 10 11 10 10 11 11 11 10 10 10 10 9 9 9 9 9 10 9 9 9 9 8 9 9 9 9 9 9 9
11 12 11 11 10 9 8 9 8 8 7 8 10 12 11 10 10 10 11 11 12 12 11 10 10 11 10 10 9 10 10 10 9 9 9 9 9 9 9 10 10 10 10 10
11 12 12 12 11 10 9 9 9 8 8 9 10 11 12 11 10 9 11 12 12 12 12 11 11 11 11 10 10 11 10 10 10 10 10 10 10 10 10 10 10 10 11 11
12 12 13 13 12 11 10 9 8 8 9 11 10 11 13 11 12 11 12 13 13 13 12 12 11 12 12 11 11 11 11 11 11 11 11 12 12 12 12 11 11 12 12 12
10 12 13 12 12 11 10 8 10 10 10 10 8 10 12 11 12 12 13 14 13 13 13 13 13 12 12 12 12 11 11 11 11 11 12 13 13 14 13 13 13 13 14 14
12 13 13 13 12 12 11 11 12 11 9 9 9 11 11 11 13 13 14 14 13 13 14 14 14 13 12 12 12 12 12 12 12 12 12 13 13 14 14 14 14 15 15 16
13 13 14 13 12 12 12 12 11 11 9 11 11 13 14 14 14 15 15 15 15 15 16 15 14 14 13 12 13 13 13 13 14 14 14 14 14 14 14 14 15 16 17 17
14 14 13 13 13 13 12 12 11 12 12 12 12 14 14 15 14 16 17 18 17 17 16 16 15 15 15 14 15 15 15 15 15 15 16 16 16 16 15 15 16 17 17 18
17 17 15 15 16 15 13 11 12 13 13 12 13 14 15 16 17 18 18 19 18 18 17 16 16 16 16 16 16 16 17 17 17 17 17 17 17 17 17 17 17 18 18 18
18 18 18 17 16 17 16 14 14 15 15 14 15 17 18 19 20 19 20 19 19 20 19 18 18 18 18 18 18 18 18 18 18 18 18 18 18 18 18 18 18 19 20 20
21 21 20 18 17 17 18 17 17 17 17 17 16 19 19 21 21 21 21 21 20 21 21 20 19 19 19 19 19 19 20 19 19 20 20 20 20 20 20 20 20 21 21 22
23 23 22 21 19 17 18 17 17 17 18 17 18 20 21 22 21 20 21 22 22 22 22 21 20 20 20 20 20 21 21 20 21 21 21 21 21 21 21 21 22 23 23 23
23 23 24 23 21 19 19 19 19 19 20 20 19 19 20 22 23 22 23 22 23 23 22 22 22 21 21 21 21 21 21 21 22 22 23 23 23 23 23 23 24 24 24 24
25 25 24 25 23 23 22 21 21 20 20 21 22 23 24 26 26 26 26 24 23 24 24 24 23 22 21 21 21 22 22 22 22 23 23 23 23 24 25 25 25 25 26 25
26 26 25 25 23 23 23 21 22 21 22 23 24 26 27 28 28 28 28 26 25 25 26 25 24 23 23 23 23 23 23 23 23 24 24 25 25 25 26 27 27 27 27 27
25 26 25 25 24 25 24 24 24 24 24 25 26 28 28 28 30 30 29 27 26 26 26 25 25 24 24 24 25 24 24 25 25 26 26 26 27 27 28 28 29 29 29 29
28 27 27 26 26 27 25 24 24 24 25 26 27 29 30 30 30 29 27 27 27 27 26 25 25 25 25 25 26 26 25 26 26 27 27 28 28 29 29 30 30 30 30 30
27 28 28 27 27 26 26 25 25 26 28 29 30 30 30 30 31 29 28 28 28 27 25 26 26 26 26 26 26 26 26 26 27 28 29 29 29 30 30 30 31 31 32 32
27 29 30 29 28 27 27 25 26 27 30 31 31 30 30 29 30 29 29 29 29 27 26 26 26 27 27 27 26 27 28 28 29 30 30 31 31 30 31 31 32 32 33 33
27 28 30 28 28 29 29 27 28 29 30 30 31 31 30 29 28 29 29 29 29 29 28 28 27 27 27 27 28 28 29 29 29 30 30 31 31 31 31 31 32 32 33 33
26 27 28 29 30 30 31 30 31 31 31 30 31 31 31 30 30 30 30 30 30 30 30 30 29 29 28 29 29 29 29 30 30 31 31 31 31 31 31 32 32 32 33 33
29 30 30 31 31 32 31 31 32 32 31 31 32 31 31 31 31 31 31 31 31 31 31 31 30 30 30 30 30 30 29 30 31 31 31 31 31 31 32 33 33 33 34 34
32 33 32 32 33 33 33 31 31 32 32 33 33 33 33 32 32 32 31 31 31 31 32 31 31 31 31 31 31 31 31 31 32 33 32 31 31 32 32 33 34 35 35 35
32 33 33 33 34 34 33 32 32 32 32 33 34 34 33 33 33 31 32 32 32 32 31 31 31 31 31 31 32 32 33 33 33 32 31 31 31 32 33 34 34 34 34 35
Wind_Direction
202 218 230 233 238 250 265 262 266 274 282 284 294 302 311 315 320 325 330 332 337 345 349 354 355 355 353 354 354 356 353 351 351 352 351 353 353 353 357 358 358 357 352 348
216 236 231 235 240 245 257 272 272 269 271 273 275 280 297 305 308 317 323 319 323 331 335 341 344 344 343 344 345 345 347 350 348 348 346 348 350 352 350 349 350 350 350 348
230 239 239 236 242 245 248 252 253 271 272 275 283 287 291 301 303 314 316 317 320 324 331 334 335 337 336 337 336 336 337 338 338 339 342 345 350 349 348 346 346 347 348 346
236 239 239 234 241 244 246 252 256 269 273 276 288 293 299 299 310 316 315 315 315 320 322 326 328 330 330 331 328 327 330 330 329 333 334 336 338 340 341 340 340 341 340 338
231 239 238 238 239 245 252 252 256 262 264 275 288 295 295 295 303 314 314 312 311 312 319 315 316 319 322 324 323 323 322 322 322 323 325 325 325 326 328 330 332 332 332 332
228 239 242 240 236 239 246 253 264 262 262 266 283 287 283 296 299 306 311 311 309 311 313 313 311 312 313 317 319 317 316 315 315 316 316 318 318 316 319 321 323 323 322 322
239 246 248 245 235 235 244 255 266 271 270 277 280 281 278 286 292 301 304 306 309 312 312 311 312 311 309 310 313 316 314 313 314 313 313 312 312 312 310 312 313 315 316 315
239 251 253 250 243 233 234 244 260 273 283 290 284 277 284 279 285 293 299 304 306 306 307 306 306 306 308 309 310 312 312 311 310 309 309 309 309 309 308 307 307 308 310 310
231 249 258 252 247 238 235 244 254 265 270 275 275 280 279 274 280 290 294 297 300 302 301 302 302 300 303 306 308 308 308 306 304 302 304 306 307 308 308 306 304 306 308 308
228 238 246 252 252 246 238 237 245 253 259 265 273 276 277 275 285 293 296 295 295 299 301 302 301 301 300 303 303 303 304 305 304 303 302 302 303 304 303 303 303 306 309 308
230 233 236 240 247 250 252 249 244 251 253 265 267 272 279 282 282 285 293 296 296 297 299 296 296 297 299 299 299 300 301 302 303 302 301 302 301 300 300 302 302 303 307 307
233 233 234 237 243 247 244 247 250 254 257 261 266 272 274 278 283 287 292 292 292 294 296 297 295 295 296 296 297 298 299 300 300 301 301 301 301 300 299 299 299 301 303 302
231 230 232 233 239 248 247 238 238 247 256 260 265 273 278 278 278 285 290 290 289 291 293 293 295 295 294 294 294 296 297 298 299 299 298 297 297 298 298 298 299 299 300 301
235 232 230 233 233 244 250 249 244 243 250 255 259 269 276 280 282 283 286 286 288 289 291 289 291 294 293 292 293 295 296 297 298 298 297 296 296 296 296 297 298 298 298 298
238 236 235 235 233 239 249 255 253 250 250 254 258 265 273 277 281 282 282 284 287 288 289 290 291 291 291 291 292 293 294 296 297 297 297 296 295 296 296 295 295 297 296 295
240 237 236 238 238 238 244 251 251 249 253 255 261 262 264 271 276 279 281 283 285 286 287 289 289 289 289 289 291 292 292 294 295 296 296 297 297 297 297 296 296 295 295 293
241 242 241 242 243 244 243 245 251 251 253 256 259 262 264 270 273 277 279 281 282 282 283 287 287 287 287 287 289 292 293 292 293 293 294 296 296 296 296 295 295 294 294 294
245 246 245 246 244 245 244 244 247 250 254 255 257 258 261 268 273 275 277 279 280 280 282 284 285 286 286 286 288 290 291 291 291 292 293 295 295 295 296 296 294 293 293 293
243 244 247 247 248 250 249 248 250 252 255 255 258 260 264 266 271 273 276 279 281 280 280 282 284 285 286 287 288 289 289 291 292 292 293 294 294 294 295 295 294 293 292 291
246 246 248 246 248 250 251 250 252 255 257 257 259 262 265 267 269 271 273 276 278 277 278 281 283 284 284 286 287 288 289 291 292 293 293 293 294 294 294 294 294 292 291 291
242 245 248 248 249 249 248 250 254 254 256 260 263 265 265 267 269 272 274 275 276 278 280 282 283 284 284 286 286 288 291 291 292 293 293 293 293 293 294 294 293 293 292 292
240 245 248 248 248 247 248 248 252 256 259 261 264 265 266 267 270 272 273 274 275 276 279 281 283 284 285 285 285 287 290 292 293 293 293 292 293 293 293 294 294 294 293 291
239 242 246 248 246 247 248 248 252 255 258 260 263 263 265 267 269 270 271 273 274 276 278 280 282 283 282 284 286 286 288 290 292 293 293 293 293 293 294 295 295 294 294 292
239 240 243 245 247 248 249 249 252 255 257 259 261 263 267 269 269 269 271 274 274 275 277 278 280 281 283 285 286 287 287 288 290 292 292 293 294 293 293 294 295 295 295 293
239 240 244 246 247 247 249 251 253 255 257 260 263 266 268 269 269 269 271 274 275 275 275 276 278 280 283 284 286 287 288 290 291 292 291 292 294 294 294 295 295 295 295 294
239 240 243 246 248 250 252 253 255 257 259 262 263 265 267 268 270 271 272 274 274 274 275 276 278 280 282 284 285 288 289 291 293 293 293 294 295 295 295 295 295 294 294 294
Height
5906 5908 5909 5911 5913 5914 5914 5915 5916 5916 5917 5915 5914 5913 5912 5911 5911 5910 5909 5907 5906 5905 5904 5902 5901 5900 5899 5898 5897 5895 5894 5893 5892 5891 5890 5889 5888 5887 5887 5886 5885 5884 5884 5883
5906 5907 5909 5911 5912 5912 5914 5915 5915 5915 5915 5915 5913 5912 5911 5910 5910 5909 5908 5907 5905 5905 5904 5902 5902 5900 5899 5898 5897 5896 5894 5893 5892 5891 5890 5889 5889 5888 5887 5886 5885 5884 5884 5883
5904 5907 5908 5909 5910 5912 5913 5914 5915 5914 5914 5913 5912 5911 5910 5910 5909 5908 5907 5907 5905 5904 5904 5902 5901 5900 5899 5898 5897 5895 5894 5893 5892 5891 5890 5889 5888 5888 5887 5886 5885 5884 5883 5882
5903 5905 5906 5907 5909 5910 5911 5912 5913 5913 5913 5912 5913 5911 5909 5908 5908 5908 5907 5906 5905 5904 5903 5902 5900 5900 5899 5898 5896 5895 5894 5893 5892 5891 5890 5889 5888 5887 5887 5886 5885 5883 5882 5882
5901 5902 5904 5905 5907 5908 5909 5910 5910 5911 5911 5911 5911 5911 5909 5906 5906 5906 5906 5905 5904 5903 5902 5901 5900 5899 5898 5897 5896 5894 5893 5892 5891 5890 5889 5888 5887 5886 5886 5885 5884 5883 5882 5881
5899 5901 5902 5903 5905 5906 5907 5908 5909 5909 5910 5910 5910 5910 5907 5905 5904 5905 5905 5904 5903 5901 5901 5899 5899 5898 5897 5896 5895 5894 5893 5891 5890 5890 5888 5887 5886 5885 5884 5883 5883 5882 5881 5879
5897 5899 5900 5901 5902 5904 5906 5907 5908 5908 5908 5908 5908 5907 5906 5904 5904 5903 5903 5902 5901 5900 5899 5898 5897 5896 5895 5894 5893 5892 5891 5890 5889 5888 5887 5886 5884 5883 5882 5882 5881 5880 5879 5878
5895 5897 5898 5899 5900 5901 5903 5906 5907 5907 5907 5907 5906 5905 5905 5903 5902 5902 5902 5901 5900 5899 5898 5897 5896 5894 5894 5893 5891 5890 5889 5888 5887 5886 5885 5884 5882 5881 5880 5879 5878 5877 5876 5875
5893 5896 5897 5897 5898 5899 5901 5903 5905 5905 5906 5906 5905 5904 5901 5900 5901 5900 5900 5899 5898 5897 5896 5895 5894 5892 5891 5891 5890 5888 5887 5886 5885 5884 5883 5881 5880 5879 5878 5877 5876 5874 5873 5871
5890 5893 5895 5895 5896 5896 5898 5900 5902 5902 5903 5903 5903 5901 5899 5897 5897 5898 5898 5897 5896 5894 5893 5892 5891 5890 5889 5888 5887 5886 5885 5884 5882 5881 5879 5878 5877 5876 5875 5874 5872 5871 5869 5868
5886 5889 5892 5893 5894 5895 5896 5897 5898 5899 5900 5901 5900 5900 5897 5896 5895 5895 5894 5893 5892 5891 5890 5889 5888 5887 5886 5886 5884 5883 5882 5881 5879 5878 5876 5875 5874 5873 5872 5870 5869 5868 5866 5864
5882 5885 5887 5890 5892 5892 5893 5895 5896 5897 5897 5897 5897 5898 5895 5894 5893 5891 5890 5890 5889 5888 5887 5886 5885 5884 5883 5882 5881 5880 5878 5877 5876 5874 5873 5872 5870 5869 5868 5866 5865 5864 5862 5860
5877 5880 5882 5885 5889 5889 5889 5890 5892 5894 5894 5894 5894 5893 5891 5890 5889 5888 5887 5886 5885 5884 5883 5882 5881 5880 5879 5878 5877 5876 5874 5873 5872 5870 5869 5868 5866 5865 5863 5862 5861 5859 5858 5856
5872 5874 5877 5881 5883 5885 5885 5886 5887 5889 5888 5889 5890 5888 5887 5886 5884 5883 5883 5882 5881 5880 5879 5877 5876 5876 5875 5874 5873 5871 5870 5869 5867 5866 5864 5863 5862 5860 5859 5857 5856 5854 5853 5851
5866 5869 5871 5873 5876 5878 5880 5882 5883 5884 5884 5885 5885 5883 5882 5881 5880 5879 5878 5877 5876 5875 5875 5873 5872 5871 5870 5869 5868 5867 5865 5864 5863 5861 5859 5858 5857 5855 5854 5852 5850 5849 5847 5845
5859 5862 5864 5866 5870 5872 5874 5876 5877 5878 5879 5880 5879 5878 5876 5875 5875 5874 5873 5872 5871 5870 5870 5869 5867 5866 5865 5864 5863 5862 5860 5859 5858 5856 5854 5853 5851 5850 5848 5846 5845 5843 5841 5840
5852 5855 5858 5860 5863 5865 5867 5870 5871 5872 5873 5874 5873 5872 5871 5869 5869 5868 5867 5866 5865 5865 5864 5863 5862 5861 5860 5859 5857 5856 5855 5854 5852 5851 5849 5847 5846 5844 5842 5840 5838 5837 5835 5833
5847 5848 5851 5853 5856 5858 5863 5864 5864 5865 5866 5866 5865 5864 5864 5863 5862 5862 5861 5860 5859 5859 5858 5857 5856 5855 5854 5852 5851 5850 5849 5848 5846 5845 5843 5841 5839 5837 5835 5833 5831 5829 5827 5826
5840 5841 5844 5846 5849 5851 5855 5856 5856 5858 5858 5858 5857 5857 5857 5856 5855 5855 5854 5853 5853 5853 5852 5851 5850 5848 5847 5846 5845 5844 5843 5841 5840 5838 5836 5834 5832 5830 5828 5826 5823 5821 5819 5818
5833 5835 5837 5839 5841 5844 5847 5848 5849 5851 5849 5849 5849 5849 5850 5849 5849 5848 5848 5847 5846 5845 5844 5844 5843 5842 5841 5840 5838 5837 5836 5834 5833 5831 5829 5827 5824 5822 5820 5818 5815 5813 5811 5809
5826 5828 5829 5831 5833 5836 5838 5839 5841 5844 5842 5841 5841 5842 5842 5842 5841 5841 5841 5840 5839 5838 5838 5838 5837 5836 5834 5833 5832 5830 5829 5827 5825 5823 5821 5819 5816 5814 5812 5809 5807 5804 5802 5800
5818 5821 5822 5824 5826 5830 5829 5831 5833 5834 5834 5834 5834 5834 5834 5834 5834 5834 5833 5833 5833 5832 5832 5831 5830 5829 5828 5826 5825 5823 5821 5819 5817 5815 5813 5810 5808 5805 5803 5801 5798 5795 5792 5790
5810 5813 5814 5816 5819 5819 5820 5821 5823 5824 5825 5826 5826 5826 5826 5827 5827 5826 5826 5826 5825 5825 5824 5823 5823 5822 5820 5819 5817 5816 5814 5812 5809 5807 5805 5802 5799 5797 5794 5792 5789 5786 5783 5781
5802 5804 5806 5807 5809 5810 5811 5812 5813 5815 5816 5817 5818 5818 5818 5818 5818 5818 5818 5818 5817 5817 5816 5815 5815 5814 5812 5811 5809 5807 5806 5803 5801 5798 5796 5793 5791 5788 5786 5783 5780 5778 5775 5772
5794 5795 5797 5799 5800 5801 5802 5803 5805 5807 5808 5809 5810 5810 5810 5810 5810 5810 5810 5809 5809 5808 5808 5807 5807 5806 5804 5803 5801 5799 5797 5795 5793 5790 5787 5785 5782 5780 5777 5774 5772 5769 5766 5763
5786 5788 5789 5790 5790 5792 5793 5795 5797 5799 5800 5801 5801 5802 5802 5802 5801 5800 5801 5801 5800 5800 5799 5799 5798 5797 5796 5794 5792 5791 5788 5786 5784 5781 5779 5776 5774 5771 5769 5766 5763 5760 5757 5755